Location: Philomena
(55.1756°N, 111.6233°W)
Time: 08:24:12
(UTC+00:00)

PCSat - Pass Details

Date: 06 December 2023
Orbit: 784 x 791 km, 67.0° (Epoch: 23 February)

Event Time Altitude Azimuth Distance (km) Brightness Sun altitude
Exits shadow 11:58:03 66° 113° (ESE) 861 9.8 -29.5°
Drops below altitude 10° 12:03:14 10° 45° (NE) 2,363 12.6 -28.8°
Sets 12:05:40 0° 43° (NE) 3,297 13.4 -28.5°
